カタログに戻る

STARLINK-31135

運用中通信VLEO
NORAD 58771·PAYLOAD·🇺🇸 United States

打ち上げ Jan 14, 2024 から Vandenberg Space Force Base

Loading…

次のパス (今後24時間)

TLE

最新Source: CelesTrak SupGP

元期: Sep 14, 2026, 21:53 UTC

1 58771C 24011G   26257.91229167  .00017256  00000+0  50957-3 0  2571
2 58771  53.1584 211.4880 0001335  93.2613  44.6562 15.34397111    19

AllMySatでSTARLINK-31135をリアルタイム追跡

Download on the App Store